Terminal Aerodrome Forecast
Issued by NWS Columbia, SC

Home | Current Version | Previous Version | Text Only | Print | Product List | Glossary On
Versions: 1 2 3 4 5 6 7 8 9 10 11 12 13 14 15 16 17 18 19 20 21 22 23 24 25 26 27 28 29 30 31 32 33 34 35 36 37 38 39 40 41 42 43 44 45 46 47 48 49
000
FTUS42 KCAE 220500
TAFAGS
TAF
KAGS 220520Z 2206/2306 23007KT P6SM SCT120
     FM220800 24005KT P6SM BKN045 BKN120
     FM221400 34008KT P6SM BKN045 BKN090
     FM221800 04007KT P6SM SCT040 BKN100
     FM222300 VRB03KT P6SM BKN250=

USA.gov is the U.S. government's official web portal to all federal, state and local government web resources and services.